This is the latest recevied weather packets stored in our database for station/object K4TH. If no packets are shown the sender has not sent any weather packets the latest 1 day(s).
| Time | Temp. | Humidity | Pressure | Rain* | Wind** | Luminosity | Snow |
|---|---|---|---|---|---|---|---|
| 1778037283 | 23.33° C | 71% | 1011.3 hPa | 0 mm | 0.45 m/s, 63° | 0 W/m² | - |
| 1778036980 | 23.33° C | 70% | 1011.4 hPa | 0 mm | 0.45 m/s, 29° | 0 W/m² | - |
| 1778036678 | 23.33° C | 70% | 1011.5 hPa | 0 mm | 0.45 m/s, 55° | 0 W/m² | - |
| 1778036374 | 23.33° C | 69% | 1011.4 hPa | 0 mm | 0.45 m/s, 38° | 0 W/m² | - |
| 1778036071 | 23.89° C | 69% | 1011.3 hPa | 0 mm | 0.45 m/s, 42° | 0 W/m² | - |
| 1778035768 | 23.89° C | 69% | 1011.3 hPa | 0 mm | 0.89 m/s, 95° | 0 W/m² | - |
| 1778035465 | 23.89° C | 68% | 1011.6 hPa | 0 mm | 0.45 m/s, 68° | 0 W/m² | - |
| 1778035161 | 23.89° C | 68% | 1011.8 hPa | 0 mm | 0.45 m/s, 26° | 0 W/m² | - |
| 1778034858 | 23.89° C | 67% | 1011.5 hPa | 0 mm | 0.45 m/s, 33° | 0 W/m² | - |
| 1778034554 | 23.89° C | 67% | 1011.5 hPa | 0 mm | 0.45 m/s, 60° | 0 W/m² | - |
| 1778034252 | 23.89° C | 66% | 1011.4 hPa | 0 mm | 0.45 m/s, 60° | 0 W/m² | - |
| 1778033950 | 23.89° C | 66% | 1011.1 hPa | 0 mm | 0.89 m/s, 69° | 0 W/m² | - |
| 1778033647 | 23.89° C | 66% | 1011.3 hPa | 0 mm | 0.45 m/s, 42° | 0 W/m² | - |
| 1778033343 | 23.89° C | 66% | 1011.1 hPa | 0 mm | 0.89 m/s, 195° | 0 W/m² | - |
| 1778033042 | 23.89° C | 66% | 1011 hPa | 0 mm | 0.45 m/s, 63° | 0 W/m² | - |
| 1778032739 | 23.89° C | 66% | 1011 hPa | 0 mm | 0.89 m/s, 62° | 0 W/m² | - |
| 1778032436 | 23.89° C | 65% | 1011.4 hPa | 0 mm | 1.34 m/s, 96° | 0 W/m² | - |
| 1778032133 | 23.33° C | 66% | 1011.5 hPa | 0 mm | 1.34 m/s, 131° | 0 W/m² | - |
| 1778031830 | 23.33° C | 67% | 1011.7 hPa | 0 mm | 0.45 m/s, 61° | 0 W/m² | - |
| 1778031526 | 22.78° C | 68% | 1011.3 hPa | 0 mm | 0.89 m/s, 132° | 0 W/m² | - |
| 1778031224 | 22.78° C | 69% | 1011.1 hPa | 0 mm | 0 m/s | 0 W/m² | - |
| 1778030920 | 22.78° C | 69% | 1011.3 hPa | 0 mm | 0.45 m/s, 56° | 0 W/m² | - |
| 1778030617 | 22.78° C | 70% | 1011.2 hPa | 0 mm | 0.89 m/s, 84° | 0 W/m² | - |
| 1778030314 | 22.22° C | 73% | 1011.3 hPa | 0 mm | 0 m/s | 0 W/m² | - |
| 1778030011 | 22.78° C | 72% | 1011.1 hPa | 0 mm | 0 m/s | 0 W/m² | - |
* Rain latest hour (hover to see other rain measurements)
** Current wind speed in m/s (hover to see current wind gust speed)